Regional Weather Roundup
Issued by NWS

Home | Current Version | Previous Version | Text Only | Print | Product List | Glossary On
Versions: 1 2 3 4 5 6 7 8 9 10 11 12 13 14 15 16 17 18 19 20 21 22 23 24 25 26 27 28 29 30 31 32 33 34 35 36 37 38 39 40 41 42 43 44 45 46 47 48 49 50
000
ASUS45 KSLC 220910
RWRUT

UTAH REGIONAL WEATHER ROUNDUP
NATIONAL WEATHER SERVICE SALT LAKE CITY UT
300 AM MDT TUE JUL 22 2014

UTZ001>011-023>025-221000-

NORTHERN UTAH

CITY           SKY/WX    TMP DP  RH WIND       PRES   REMARKS
HILL AFB       CLEAR     72  41  32 E17G25    30.16R
LOGAN          NOT AVBL
OGDEN          CLEAR     74  40  29 SE5       30.13R
PROVO AIRPORT  CLEAR     66  39  37 SE5       30.18R
SALT LAKE CITY PTCLDY    69  48  47 CALM      30.12R
VERNAL         CLEAR     63  35  35 NW7       30.21R
WENDOVER       CLEAR     68  50  52 SE5       30.17R
HEBER CITY     CLEAR     50  39  66 CALM      30.26R
WEST JORDAN    CLEAR     72  43  35 SW9       30.16R

$$

UTZ012>022-026-027-221000-

SOUTHERN UTAH

CITY           SKY/WX    TMP DP  RH WIND       PRES   REMARKS
BRYCE CANYON   PTCLDY    47  27  45 W12       30.44S
CEDAR CITY     CLEAR     65  26  23 SE6       30.26S
MILFORD        CLEAR     62  30  29 S5        30.21R
MOAB/CYNLANDS  CLEAR     70  25  18 CALM      30.14R
PRICE          CLEAR     66  20  17 N10       30.26R
ST GEORGE      SUNNY     75  25  15 E7        30.08R
KANAB            N/A     61  32  33 NE7       30.27R

$$

REGIONAL REPORTS     COLORADO/ARIZONA

CITY           SKY/WX    TMP DP  RH WIND       PRES   REMARKS
CRAIG, CO      CLEAR     46  43  89 S10       30.31R
GRAND JUNCTION CLEAR     68  24  19 SE10      30.19R
RIFLE          CLEAR     60  34  37 S3        30.28R
MONTROSE       CLEAR     65  34  31 SE12      30.31R
CORTEZ         CLEAR     54  36  50 NE5       30.30R
PAGE, AZ       CLEAR     77  31  18 CALM      30.16R
GRAND CANYON   CLEAR     50  33  52 CALM      30.37S
KINGMAN        CLEAR     74  37  26 CALM      30.10S
FLAGSTAFF      CLEAR     57  34  41 W3        30.39S

$$

REGIONAL REPORTS    NEVADA/IDAHO/WYOMING

CITY           SKY/WX    TMP DP  RH WIND       PRES   REMARKS
LAS VEGAS, NV  CLEAR     84  35  17 S10       29.94S
ELY            CLEAR     59  29  31 W6        30.29R
ELKO           CLEAR     63  52  67 CALM      30.22R
POCATELLO, ID  LGT RAIN  64  55  72 SW8       30.20R
BURLEY         MOCLDY    60  54  80 CALM      30.17R
EVANSTON, WY   CLOUDY    59  37  44 NE3       30.38R
ROCK SPRINGS   CLEAR     60  32  34 S3        30.34

$$


USA.gov is the U.S. government's official web portal to all federal, state and local government web resources and services.